User: anonymous   Login
Location: Unspecified
(0.0000°N, 0.0000°E)
Time: 22:29:22
(UTC+00:00)
Language:

Aussat K3 - Orbit

View from above orbital plane
View from above orbital plane
View from above satellite
View from above satellite

Ground track
Ground track

The orbit data is extracted from the following two-line orbital elements,

1 18350U 87078A   17085.78787222 -.00000066 +00000-0 +00000-0 0  9994
2 18350 014.6043 019.0001 0009015 285.6083 259.6134 00.98904377107190
Epoch (UTC): 26 March 2017 18:54:32
Eccentricity: 0.0009015
inclination: 14.6043°
perigee height: 36135 km
apogee height: 36212 km
right ascension of ascending node: 19.0001°
argument of perigee: 285.6083°
revolutions per day: 0.98904377
mean anomaly at epoch: 259.6134°
orbit number at epoch: 10719

The dashed part of the orbit path shows where the satellite is in the earth's shadow,  

DLR